www.pogodaiklimat.ru

Погода и климат >> Архив погоды >> Россия >> Ямало-Ненецкий АО >> Салехард


АРХИВ ПОГОДЫ в Салехарде

Время (UTC), дата Ветер
(напр.,м/с)
 
Видим.   Явления Облачность Т
(С)
Тd
(С)
f
(%)
Тe
(С)
Тes
(С)
Комфортность P
(гПа)
Po
(гПа)
Тmin
(С)
Tmax
(С)
R
(мм)
R24
(мм)
S
(см)
09 13.06 СВ 5
{10}
20 км 6/0
[Ac trans Ci fib]
+13.2 +3.3 51 +11 +16 по сезону 1006.4 1004.4
12 13.06 В 5
{10}
20 км 8/0
[Ac trans Ci fib]
+12.1 +4.5 60 +10 +12 по сезону 1004.8 1002.8
15 13.06 СВ 5 20 км 3/0
[Ac trans Ci fib]
+9.9 +3.9 66 +7 +8 по сезону 1004.7 1002.7 +13.6
18 13.06 СВ 3 20 км ясно +5.6 +2.6 81 +2 +2 прохладно 1003.5 1001.5
21 13.06 СВ 4 20 км 1/1 1000 м
[Sc]
+3.3 +1.1 85 -1 -1 холодно 1002.4 1000.3
00 14.06 СВ 4 20 км 8/5 1380 м
[Sc Ac trans Ci fib]
+4.1 +1.8 85 -0 0 прохладно 1001.4 999.4
03 14.06 СВ 4 20 км {ливн. осадки} ясно +6.3 +2.0 74 +3 +6 прохладно 1000.3 998.3 +3.2 0.0
06 14.06 СВ 2 20 км {ливн. осадки} 10/8 420 м
[Cb calv Ac trans]
+10.1 +5.0 71 +9 +10 по сезону 999.2 997.2
09 14.06 СВ 4 20 км 10/8 500 м
[Cb calv Ac trans]
+10.2 +5.8 74 +8 +8 по сезону 998.7 996.7
12 14.06 СВ 2 20 км 10/8 630 м
[Sc diur, vesp Ac trans]
+9.5 +5.9 78 +8 +8 прохладно 998.9 997.0
15 14.06 СВ 2 20 км 10/8 870 м
[Sc Ac trans]
+9.7 +6.7 82 +8 +8 по сезону 999.3 997.3 +10.8
18 14.06 С 1 20 км 9/8 330 м
[Frnb Ac trans]
+8.8 +6.7 87 +8 +8 по сезону 999.5 997.5
21 14.06 СВ 2 4000 м дымка 10/10 360 м
[St]
+5.9 +5.0 94 +3 +3 по сезону 1000.4 998.4
00 15.06 штиль 0 20 км 3/0
[Ac trans]
+8.4 +7.5 94 +7 +9 по сезону 1001.7 999.7
03 15.06 СВ 2 20 км 8/0
[Ac trans Ci fib]
+14.5 +8.2 66 +14 +18 тепло 1002.5 1000.6 +4.5
06 15.06 СВ 3 20 км 8/1 1000 м
[Cu hum Ac trans]
+16.5 +8.6 60 +16 +21 тепло 1003.2 1001.3
09 15.06 Ю 1 20 км 10/5 1410 м
[Cu Sc Ac trans]
+18.5 +9.5 56 +20 +23 тепло 1004.4 1002.5
12 15.06 СВ 4 20 км 10/5 1000 м
[Cu Sc Ac trans Ci fib]
+20.9 +9.5 48 +23 +24 комфорт 1005.6 1003.7
15 15.06 С 3 20 км 10/8 400 м
[Cb calv Ac trans]
+17.8 +9.6 59 +18 +18 тепло 1006.7 1004.7 +21.1
18 15.06 СВ 5 10 км слабый дождь 10/8 240 м
[Frnb Ac As]
+11.1 +7.5 78 +8 +8 по сезону 1009.0 1007.0
21 15.06 СВ 6
{11}
20 км {дождь} 10/6 500 м
[Cb calv Ac trans]
+8.9 +5.3 78 +5 +5 по сезону 1009.9 1007.9
00 16.06 СВ 5
{11}
10 км слабый ливневой дождь 10/8 570 м
[Cb calv Ac trans]
+7.3 +4.6 83 +3 +3 по сезону 1010.6 1008.6
03 16.06 С 2 10 км слабый дождь {ливн. осадки} 10/8 300 м
[Frnb Ac As]
+8.6 +6.9 89 +7 +7 по сезону 1011.1 1009.1 +6.5 4
06 16.06 СВ 6-11
{12}
10 км слабый дождь {ливн. осадки} 10/8 360 м
[Frnb Ac trans]
+10.4 +7.6 83 +7 +7 по сезону 1010.2 1008.3
09 16.06 СВ 8-13
{13}
20 км {ливн. осадки, дождь} 10/6 500 м
[Cb calv Ac trans]
+12.0 +8.9 81 +9 +9 по сезону 1010.4 1008.4
12 16.06 СВ 8-14
{16}
20 км {ливн. осадки, дождь} 10/5 600 м
[Cu Sc Ac trans Ci fib]
+12.0 +6.5 69 +9 +9 прохладно 1010.7 1008.7
15 16.06 СВ 7
{14}
20 км 8/6 400 м
[Cb calv Ac trans]
+11.0 +6.1 72 +8 +8 по сезону 1011.1 1009.1 +12.8 3
18 16.06 СВ 3
{15}
20 км {гроза, ливн. осадки} 10/8 360 м
[Cb cap Ac trans Ci fib]
+8.6 +5.8 83 +6 +6 по сезону 1013.0 1011.0
21 16.06 СВ 5
{10}
20 км 10/5 330 м
[Cb calv Ac trans Ci fib]
+7.9 +5.0 82 +4 +4 по сезону 1012.7 1010.7
00 17.06 СВ 5-10
{10}
20 км 8/4 360 м
[Cb calv Ac trans Ci fib]
+8.1 +5.3 82 +4 +5 по сезону 1013.0 1011.0
03 17.06 СВ 6-10
{10}
20 км 8/5 360 м
[Cb calv Ac trans Ci fib]
+13.4 +7.8 69 +11 +12 тепло 1012.5 1010.6 +7.6 0.0
06 17.06 СВ 7-11
{13}
20 км 6/3 300 м
[Cb calv Ci sp]
+17.7 +8.3 54 +17 +19 тепло 1011.8 1009.9
09 17.06 СВ 7-11
{13}
20 км 3/1 1000 м
[Sc diur, vesp Ci fib]
+18.8 +8.6 51 +19 +21 тепло 1011.6 1009.7
12 17.06 СВ 7-12
{13}
20 км ясно +17.3 +7.4 52 +16 +18 тепло 1011.2 1009.2
15 17.06 штиль 0-13
{13}
50 км ?/? +13.9 +7.0 63 +14 +14 тепло 1012.1 1010.1 +18.9
18 17.06 СВ 6-10
{13}
20 км 10/3 1000 м
[Sc diur, vesp Ac trans Ci fib]
+10.6 +5.7 72 +7 +7 по сезону 1011.7 1009.7
21 17.06 С 3
{10}
20 км 9/4 1000 м
[Sc diur, vesp Ac trans Ci fib]
+10.7 +5.4 70 +9 +9 по сезону 1010.0 1008.0
00 18.06 СВ 5 20 км 8/0
[Ac trans]
+12.0 +5.3 64 +10 +10 тепло 1008.6 1006.7
03 18.06 СВ 5
{10}
20 км 8/3 420 м
[Cb calv Ac trans Ci fib]
+14.2 +6.8 61 +13 +14 тепло 1008.9 1007.0 +10.3
06 18.06 СВ 6
{12}
20 км в посл. час ливневой дождь 10/8 420 м
[Cb calv Ac trans]
+9.1 +6.2 82 +5 +6 холодно 1009.4 1007.5 +9.1
09 18.06 С 2
{10}
10 км слабый ливневой дождь 10/8 400 м
[Cb calv Ac trans]
+13.7 +8.5 71 +13 +14 по сезону 1008.2 1006.3
12 18.06 В 3
{10}
20 км {ливн. осадки} 10/8 600 м
[Cb calv Ac trans]
+10.9 +6.2 73 +9 +9 прохладно 1009.8 1007.8
15 18.06 СВ 6
{11}
20 км 10/8 480 м
[Cb calv Ac trans Ci fib]
+12.5 +6.9 69 +10 +10 по сезону 1008.8 1006.8 +14.5 0.8
18 18.06 СВ 3
{11}
20 км {ливн. осадки} 9/8 300 м
[Cb calv Ac trans]
+11.2 +7.5 78 +9 +9 по сезону 1008.2 1006.2
21 18.06 СВ 4 20 км в посл. час ливневой дождь 10/10 360 м
[Cb calv]
+9.0 +6.6 85 +6 +6 по сезону 1007.6 1005.6
00 19.06 СВ 4
{11}
20 км в посл. час ливневой дождь 10/10 870 м
[Cb calv]
+8.4 +6.3 87 +5 +5 по сезону 1007.0 1005.0
03 19.06 СВ 2 4000 м дождь {ливн. осадки} 10/8 120 м
[Frnb As op]
+6.9 +5.9 93 +5 +5 прохладно 1006.8 1004.8 +6.8 14
06 19.06 СВ 5 20 км {ливн. осадки, дождь} 10/6 300 м
[Frnb Ac As]
+8.0 +6.6 91 +4 +5 холодно 1005.9 1003.9
09 19.06 СВ 4
{10}
20 км 10/8 400 м
[Cb calv Ac trans]
+9.6 +6.5 81 +7 +7 прохладно 1005.7 1003.8
12 19.06 СВ 5
{10}
20 км 10/8 270 м
[Frnb Ac trans]
+9.8 +6.0 77 +7 +7 холодно 1004.9 1003.0
15 19.06 СВ 5
{11}
20 км 10/8 800 м
[Frnb Ac trans Ci fib]
+8.5 +4.7 77 +5 +5 холодно 1004.5 1002.5 +11.3 0.5
18 19.06 СВ 3
{11}
20 км 10/8 540 м
[Cb calv Ac trans]
+7.5 +4.3 80 +5 +5 прохладно 1003.7 1001.7
21 19.06 С 2 20 км 10/8 500 м
[Cb calv Ac trans]
+7.9 +4.8 81 +6 +6 по сезону 1001.5 999.6
00 20.06 штиль 0 20 км 10/6 420 м
[Cb calv Ac trans]
+8.7 +5.4 80 +8 +8 по сезону 1000.0 998.0
03 20.06 З 2 10 км слабый дождь 10/8 330 м
[Frnb Ac As]
+8.9 +6.6 85 +7 +7 по сезону 997.9 996.0 +7.3 0.0
06 20.06 Ю 1 20 км в посл. час морось {дождь} 10/4 600 м
[Sc Ac trans]
+11.2 +6.7 74 +11 +14 по сезону 996.8 994.8

 

Местоположение метеостанции Салехард (Ямало-Ненецкий АО, Россия): широта 66.53 долгота 66.67 высота над уровнем моря 16 м.

В архиве по умолчанию представлена погода в Салехарде за последнюю неделю. Архивные данные за месяц целиком и за предыдущие месяцы, начиная с января 2011 года, Вы можете получить, выбрав интересующий диапазон дат из раскрывающегося списка и нажав кнопку "Ввод!".


*Определитесь, кто Вы:
робот инопланетянин человек

Внимание! Время в таблицах - всемирное. Для получения местного времени необходимо прибавить поправку, которая в Салехарде равна 5 ч.

Смотрите также архив погоды в соседних городах и на ближайших метеорологических станциях:

Погода в Харпе (Ямало-Ненецкий АО, Россия) (49 км)
Погода в Белоярске (Ямало-Ненецкий АО, Россия) (75 км)
Погода в Питляре (Ямало-Ненецкий АО, Россия) (85 км)
Погода в Полуе (Ямало-Ненецкий АО, Россия) (106 км)
Погода в Елецкой (Коми, Россия) (128 км)
Погода в Мужах (Ямало-Ненецкий АО, Россия) (155 км)
Погода в Воркуте (Коми, Россия) (158 км)
Погода в Петруни (Коми, Россия) (262 км)
Погода в Inari Angeli (Финляндия) (267 км)
Погода в Ныде (Ямало-Ненецкий АО, Россия) (277 км)

Пояснения к столбцам:

Ветер - указаны скорость ветра в м/с - средняя за 10 мин, порывы в срок и между сроками (в фигурных скобках) и направление, откуда дует ветер: С - северный, СВ - северо-восточный, В - восточный, ЮВ - юго-восточный, Ю - южный, ЮЗ - юго-западный, З - западный, СЗ - северо-западный.
Видимость - горизонтальная дальность видимости в метрах или километрах. При видимости от 1 до 10 км при отсутствии осадков обычно наблюдается дымка, при ухудшении видимости до 1 км и менее - туман. В сухую погоду видимость может ухудшаться дымом, пылью или мглою.
Явления - указаны атмосферные явления, наблюдавшиеся в срок или в последний час перед сроком; фигурными скобками обозначены явления, наблюдавшиеся между сроками (за 1-3 часа до срока); квадратными скобками обозначены град или гололедные отложения с указанием их диаметра в мм.
Облачность - указаны через наклонную черту общая и нижняя облачность в баллах и высота нижней границы облаков в метрах; квадратными скобками обозначены формы облаков: Ci - перистые, Cs - перисто-слоистые, Cc - перисто-кучевые, Ac - высококучевые, As - высокослоистые, Sc - слоисто-кучевые, Ns - слоисто-дождевые, Cu - кучевые, Cb - кучево-дождевые. Подробнее классификацию облаков см. в Атласе облаков (PDF).
T - Температура воздуха - температура, измеренная на высоте 2 м над землей.
Td - Температура точки росы - температура, при понижении до которой содержащийся в воздухе водяной пар достигнет насыщения.
f - Относительная влажность воздуха - влажноcть воздуха, измеренная на высоте 2 м над землей.
Te - Эффективная температура - температура, которую ощущает одетый по сезону человек в тени. Характеристика душности погоды. При расчете учитывается влияние влажности воздуха и скорости ветра на теплоощущения человека.
Tes - Эффективная температура на солнце - температура, которую ощущает человек, с поправкой на солнечный нагрев. Характеристика знойности погоды. Зависит от высоты солнца над горизонтом, облачности и скорости ветра. Ночью, в пасмурную погоду, а также при ветре 12 м/с и более поправка равна нулю.
P - Атмосферное давление - приведенное к уровню моря атмосферное давление.
Po - Атмосферное давление - измеренное на уровне метеостанции атмосферное давление.
Tmin - Минимальная температура - минимум температуры воздуха на высоте 2 м над землей.
Tmax - Максимальная температура - максимум температуры воздуха на высоте 2 м над землей.
R - Количество осадков - Количество выпавших осадков за период времени, мм. При наведении курсора мыши на число - период времени, за который выпало указанное количество осадков.
R24 - Количество осадков - Количество выпавших осадков за 24 часа, мм.
S - Снежный покров - Высота снежного покрова, см. При наведении курсора мыши на число - состояние снежного покрова и степень покрытия местности в баллах.